Preview of NWS' New Version of Forecast
This preview is not operational and should not be used for support decisions.

Regional Weather Roundup (RWR)

Issued by National Weather Service (NWS)

                            
000
ASCA42 TJSJ 240910
RWRPR 
PUERTO RICO/U.S. VIRGIN ISLANDS HOURLY WEATHER ROUNDUP
NATIONAL WEATHER SERVICE SAN JUAN PR
500 AM AST WED APR 24 2019

PRZ001>002-007>008-010-241000-
PUERTO RICO
  
CITY           SKY/WX    TMP DP  RH WIND       PRES   REMARKS
SAN JUAN LMM   PTCLDY    75  66  73 CALM      29.94R                  
CEIBA          MOCLDY    73  66  78 CALM      29.95R                  
$$

VIZ001>002-241000-
U.S. VIRGIN ISLANDS
  
CITY           SKY/WX    TMP DP  RH WIND       PRES   REMARKS
CHARLOTTE AMA  CLEAR     73  64  73 E5        29.93R                  
CHRISTIANSTED  PTCLDY    70  64  83 N5        29.94R                  
$$

HOURLY WEATHER ROUNDUP FOR THE NEWS MEDIA
  
CITY           SKY/WX    TMP DP  RH WIND       PRES   REMARKS
ORLANDO        FAIR      64  60  87 CALM      30.03F                  
NEW YORK       FAIR      60  55  83 W10       29.69F                  
NEWARK         FAIR      62  52  69 SW7       29.68F                  
CHICAGO        MOCLDY    44  40  85 N6        30.01S                  
HARTFORD       CLOUDY    51  51 100 S10       29.70F                  
BOSTON         CLOUDY    51  48  89 S5        29.69F                  
DALLAS         TSTM      63  61  93 SE3       29.95F                  
PHILADELPHIA   MOCLDY    62  54  74 W8        29.73S                  
LOS ANGELES    MOCLDY    59  55  87 VRB6      29.96F                  
WASHINGTON DC  CLOUDY    69  54  58 W5        29.78S